Regional Weather Roundup
Issued by NWS

Home | Current Version | Previous Version | Text Only | Print | Product List | Glossary On
Versions: 1 2 3 4 5 6 7 8 9 10 11 12 13 14 15 16 17 18 19 20 21 22 23 24 25 26 27
000
ASUS42 KTBW 221818
RWRFL
FLORIDA REGIONAL WEATHER ROUNDUP
NATIONAL WEATHER SERVICE TAMPA BAY RUSKIN FL
100 PM EST WED NOV 22 2017

NOTE: "FAIR" INDICATES FEW OR NO CLOUDS BELOW 12,000 FEET WITH NO
SIGNIFICANT WEATHER AND/OR OBSTRUCTIONS TO VISIBILITY.

FLZ001>010-012>015-112-114-115-221900-
PANHANDLE FLORIDA

CITY           SKY/WX    TMP DP  RH WIND       PRES   REMARKS
PENSACOLA      PTSUNNY   67  47  48 N14       30.03F
PENSACOLA NAS  CLOUDY    67  46  47 N15       30.02F
MILTON NAS     CLOUDY    66  48  52 NE8       30.05F
CRESTVIEW      MOSUNNY   68  51  54 N9G16     30.05F
DUKE FIELD     PTSUNNY   69  52  55 N9        30.02F
VALPARAISO     PTSUNNY   69  53  57 N15       30.01F
MARY ESTHER    CLOUDY    69  53  57 N16       30.00F
PANAMA CITY    FAIR      71  60  68 N13       29.99F
TYNDALL AFB    MOSUNNY   74  60  62 N9        29.98F
APALACHICOLA   CLOUDY    67  65  93 NE8       29.98F

STATION/POSITION SKY/WX   TEMP    WIND        PRES    WAVE   SWELL
                          AIR SEA DIR/SP/G            HT/PER HT/PER
                          (F)     (DEG/KT/KT) (MB)    (FT/S) (FT/S)
29.2N   88.2W              67 78   30/ 16/ 21 1016.7
28.8N   86.0W              70 76   20/ 16/ 17 1014.3F   4/ 5
PANAMA CITY BEAC           69 69   40/  9/ 14 1016.0F
TOWER C                    64      50/ 15/ 16 1015.4F
28.5N   84.5W              71 75   80/ 14/ 16 1013.8F   2/ 4

$$
FLZ011-016>038-118-127-128-134-139-239-221900-
NORTH FLORIDA

CITY           SKY/WX    TMP DP  RH WIND       PRES   REMARKS
MARIANNA       CLOUDY    70  60  70 NE8       30.01F
TALLAHASSEE    PTSUNNY   70  61  73 NE6       30.00F
PERRY          CLOUDY    73  63  71 N8        29.98F
LIVE OAK       MOSUNNY   73  63  68 N5G12     29.99F
CROSS CITY     SUNNY     75  62  64 NE8       30.00F
LAKE CITY      FAIR      72  61  68 N6        29.98F
GAINESVILLE    SUNNY     77  59  53 N10       29.98F
WILLISTON      SUNNY     79  63  57 NE8G14    29.95F
PALATKA        FAIR      75  63  64 NE7       29.97F
MAYPORT NAS    MOSUNNY   70  60  70 NE10      29.99F
JACKSONVILLE   PTSUNNY   75  60  59 VRB3      29.98F
JAX NAS        MOSUNNY   73  59  61 N8        29.98F
JAX CECIL      SUNNY     75  61  60 NE5       29.98F
ST AUGUSTINE   SUNNY     70  61  73 N10       29.99F
PALM COAST     SUNNY     72  61  68 NE9       29.97F

STATION/POSITION SKY/WX   TEMP    WIND        PRES    WAVE   SWELL
                          AIR SEA DIR/SP/G            HT/PER HT/PER
                          (F)     (DEG/KT/KT) (MB)    (FT/S) (FT/S)
SHELL POINT      NOT AVBL
KEATON BEACH               72      40/  6/  7 1014.3F
CEDAR KEY                  73      90/  6/  7 1014.2F
FERNANDINA                 69 66   30/  7/ 11 1016.5F
30.7N   81.3W                 67                N/A     3/ 8
MAYPORT                    67 67   30/ 12/ 15 1015.9F
31.4N   80.9W              63 68  360/ 10/ 12 1015.6F   3/ 8   3/ 8
ST AUGUSTINE               67 69   10/ 13/ 14 1015.1F

$$
FLZ040-043>046-052-053-057-058-063-144-221900-
INTERIOR CENTRAL FLORIDA

CITY           SKY/WX    TMP DP  RH WIND       PRES   REMARKS
OCALA          MOSUNNY   76  63  64 NE8       29.96F
THE VILLAGES     N/A     79  66  65 CALM      29.85F HAZE
LEESBURG       MOSUNNY   78  65  63 N5        29.96F
SANFORD        MOSUNNY   78  64  61 NE9       29.95F
ORLANDO EXEC   MOSUNNY   78  65  63 N7        29.94F
ORLANDO INTL   MOSUNNY   80  66  62 NE10      29.94F
KISSIMMEE      MOSUNNY   79  65  62 N8        29.95F
WINTER HAVEN   SUNNY     78  65  63 N5        29.95F
LAKELAND       MOSUNNY   79  66  65 NE7       29.94F
BARTOW         MOSUNNY   75  64  69 VRB5      29.94F
SEBRING        FAIR      80  67  63 E6        29.93F
OKEECHOBEE     SUNNY     79  66  65 N5        29.93F

$$
FLZ041-047-054-059-064-141-147-221900-
EAST CENTRAL FLORIDA

CITY           SKY/WX    TMP DP  RH WIND       PRES   REMARKS
ORMOND BEACH   MOSUNNY   72  64  78 NE12G17   29.97F
DAYTONA BEACH  MOSUNNY   75  65  70 N12       29.97F
DELAND         SUNNY     73  63  68 NE8       29.95F
NEW SMYRNA BEA MOSUNNY   73  66  78 N12G17    29.98F
JFK SPACE CTR  PTSUNNY   75  70  86 N10G17    29.93F
TITUSVILLE     MOSUNNY   79  66  65 N17       29.95F
CAPE CANAVERAL SUNNY     77  67  71 NE13      29.93F
PATRICK AFB    SUNNY     77  69  76 NE13      29.93F
MELBOURNE      MOSUNNY   78  67  68 NE10      29.93F
VERO BEACH     SUNNY     78  67  68 N8        29.93F
FT PIERCE      SUNNY     79  68  69 NE9       29.93F
STUART         MOSUNNY   79  72  78 N10       29.94F

STATION/POSITION SKY/WX   TEMP    WIND        PRES    WAVE   SWELL
                          AIR SEA DIR/SP/G            HT/PER HT/PER
                          (F)     (DEG/KT/KT) (MB)    (FT/S) (FT/S)
28.5N   80.2W              76 78  350/ 10/ 14 1013.6
TRIDENT PIER                       20/  7/ 12   N/A
27.5N   80.2W                 77                N/A     4/ 8

$$
FLZ050-056-061-142-242-148-248-149-249-151-251-155-255-
160-260-221900-
WEST CENTRAL FLORIDA

CITY           SKY/WX    TMP DP  RH WIND       PRES   REMARKS
CRYSTAL RIVER  FAIR      79  63  57 N6        29.95F
INVERNESS      PTSUNNY   79  64  61 NE6       29.95F
BROOKSVILLE    SUNNY     79  63  57 NE12      29.95F
CLEARWATER AIR FAIR      73  64  73 CALM      29.93F
ST PETE CLEARW MOSUNNY   77  66  68 N3        29.94F
TAMPA INTL     PTSUNNY   80  63  55 N3        29.94F
TAMPA EXEC     PTSUNNY   79  66  65 CALM      29.94F
PLANT CITY     MOSUNNY   79  64  61 CALM      29.95F
MACDILL AFB    PTSUNNY   81  71  70 VRB3      29.93F
PETER O KNIGHT   N/A    N/A N/A N/A E3        29.94F
ST PETERSBURG  SUNNY     76  66  71 CALM      29.92F
SARASOTA       SUNNY     79  65  62 SW6       29.91F
VENICE         FAIR      77  68  73 NW9       29.92F

STATION/POSITION SKY/WX   TEMP    WIND        PRES    WAVE   SWELL
                          AIR SEA DIR/SP/G            HT/PER HT/PER
                          (F)     (DEG/KT/KT) (MB)    (FT/S) (FT/S)
27.3N   84.2W                 77                N/A     1/ 5
CLEARWATER BEACH           71 69  300/  4/  6 1014.0F
MIDDLE TAMPA BAY           70     360/  4/  5 1013.9F
VENICE                     74 72  310/  6/  7 1013.3F

$$
FLZ066-069-070-075>078-162-262-165-265-221900-
SOUTHWEST FLORIDA AND KEYS

CITY           SKY/WX    TMP DP  RH WIND       PRES   REMARKS
PUNTA GORDA    MOSUNNY   80  65  59 N5        29.93F
FT MYERS       MOSUNNY   83  67  58 NE6       29.90F
SOUTHWEST INTL MOSUNNY   82  65  56 VRB6      29.91F
NAPLES         SUNNY     80  69  69 W10       29.91F
MARCO ISLAND   CLOUDY    82  67  60 W7        29.91F
IMMOKALEE      PTSUNNY   86  66  51 N8        29.91F
MARATHON       SUNNY     81  69  67 NE8       29.90F
KEY WEST NAS   MOSUNNY   81  74  79 E9        29.90F
KEY WEST INTL  MOSUNNY   80  72  76 E9        29.91F

STATION/POSITION SKY/WX   TEMP    WIND        PRES    WAVE   SWELL
                          AIR SEA DIR/SP/G            HT/PER HT/PER
                          (F)     (DEG/KT/KT) (MB)    (FT/S) (FT/S)
NAPLES                        76  270/  7/  8 1012.9F
DRY TORTUGAS               78     120/  4/  5 1012.8F
SAND KEY                   78                 1013.3F
MOLASSES REEF              77 78   60/  5/  6 1012.9F

$$
FLZ067-068-071>074-168-172>174-221900-
SOUTHEAST FLORIDA

CITY           SKY/WX    TMP DP  RH WIND       PRES   REMARKS
W PALM BEACH   MOSUNNY   80  69  69 E12       29.92F
FT LAUDER-EXEC MOSUNNY   82  69  64 CALM      29.90F
FT LAUDERDALE  MOSUNNY   82  66  58 E12       29.90F
POMPANO BEACH  MOSUNNY   82  67  60 E10       29.91F
PEMBROKE PINES MOSUNNY   82  63  52 CALM      29.91F
OPA LOCKA      SUNNY     85  67  54 CALM      29.90F
MIAMI          MOSUNNY   84  68  58 VRB5      29.90F
WEST KENDALL   MOSUNNY   83  67  58 SE8       29.90F
HOMESTEAD      SUNNY     82  71  68 E7        29.90F

STATION/POSITION SKY/WX   TEMP    WIND        PRES    WAVE   SWELL
                          AIR SEA DIR/SP/G            HT/PER HT/PER
                          (F)     (DEG/KT/KT) (MB)    (FT/S) (FT/S)
PORT EVERGLADES            80      80/  5/  7 1012.8F
VIRGINIA KEY               79 79   70/  3/  4 1012.7F
LAKE WORTH                 76 80   40/ 11/ 12 1014.1F
FOWEY ROCKS                78 77   60/  3/  3 1013.3F
SETTLEMENT POINT           77     100/  5/  6 1013.4F

$$





USA.gov is the U.S. government's official web portal to all federal, state and local government web resources and services.